St. James, MN

1:49 PM CDT on July 20, 2017 (GMT -0500)
Saint James Municipal

Weather History for KJYG - January, 2012

Change the Weather History Date:

Friday, January 20, 2012

  Actual Average Record
Temperature  
Mean Temperature 8 °F -  
Max Temperature 10 °F 24 °F 49 °F (1964)
Min Temperature 1 °F 4 °F -24 °F (1985)
Degree Days  
Heating Degree Days 58    
Moisture  
Dew Point 0 °F    
Average Humidity 74    
Maximum Humidity 85    
Minimum Humidity 52    
Precipitation  
Precipitation 0.03 in - - ()
Sea Level Pressure  
Sea Level Pressure 30.10 in    
Wind  
Wind Speed 7 mph (East)    
Max Wind Speed 12 mph    
Max Gust Speed -    
Visibility 5 miles    
Events Snow    
Averages and records for this station are not official NWS values.
T = Trace of Precipitation, MM = Missing Value Source: NWS Daily Summary

Daily Weather History Graph

Daily Weather History Graph

Search for Another Location

Airport or City:

Trip Planner

Search our weather history database for the weather conditions in past years. The results will help you decide how hot, cold, wet, or windy it might be!

Date:

Astronomy

Jan. 20, 2012 Rise Set
Actual Time 7:46 AM CST 5:11 PM CST
Civil Twilight 7:15 AM CST 5:43 PM CST
Nautical Twilight 6:39 AM CST 6:18 PM CST
Astronomical Twilight 6:05 AM CST 6:53 PM CST
Moon 5:27 AM CST 2:42 PM CST
Length of Visible Light 10h 28m
Length of Day
9h 24m
Waning Crescent, 8% of the Moon is Illuminated
Jan 20
Waning Crescent
Jan 23
New
Jan 30
First Quarter
Feb 7
Full
Feb 14
Last Quarter

Hourly Weather History & Observations

Time (CST) Temp. Windchill Dew Point Humidity Pressure Visibility Wind Dir Wind Speed Gust Speed Precip Events Conditions
12:15 AM 6.8 °F -3.5 °F -7.6 °F 52% 30.13 in 10.0 mi South 5.8 mph - N/A   Overcast
12:35 AM 6.8 °F -2.0 °F -7.6 °F 52% 30.12 in 10.0 mi SSE 4.6 mph - N/A   Scattered Clouds
12:55 AM 6.8 °F -3.5 °F -7.6 °F 52% 30.12 in 10.0 mi South 5.8 mph - N/A   Scattered Clouds
1:15 AM 6.8 °F -2.0 °F -7.6 °F 52% 30.12 in 10.0 mi South 4.6 mph - N/A   Mostly Cloudy
1:35 AM 6.8 °F -4.8 °F -7.6 °F 52% 30.12 in 10.0 mi SSE 6.9 mph - N/A   Overcast
1:55 AM 6.8 °F -3.5 °F -7.6 °F 52% 30.11 in 10.0 mi South 5.8 mph - N/A   Overcast
2:14 AM 6.8 °F -3.5 °F -5.8 °F 56% 30.11 in 7.0 mi South 5.8 mph - N/A   Overcast
2:35 AM 6.8 °F -3.5 °F -2.2 °F 67% 30.10 in 5.0 mi SE 5.8 mph - N/A Snow Light Snow
2:55 AM 6.8 °F -4.8 °F -2.2 °F 67% 30.09 in 4.0 mi SE 6.9 mph - N/A Snow Light Snow
3:14 AM 6.8 °F -4.8 °F -0.4 °F 72% 30.08 in 3.0 mi ESE 6.9 mph - N/A Snow Light Snow
3:34 AM 6.8 °F -5.9 °F -0.4 °F 72% 30.06 in 1.5 mi ESE 8.1 mph - N/A Snow Light Snow
3:55 AM 5.0 °F -9.1 °F -0.4 °F 78% 30.06 in 1.5 mi ESE 9.2 mph - N/A Snow Light Snow
4:15 AM 5.0 °F -6.9 °F -0.4 °F 78% 30.07 in 1.2 mi SE 6.9 mph - N/A Snow Light Snow
4:35 AM 5.0 °F -6.9 °F -0.4 °F 78% 30.08 in 2.0 mi SE 6.9 mph - N/A Snow Light Snow
4:55 AM 5.0 °F -5.6 °F -0.4 °F 78% 30.08 in 1.5 mi SE 5.8 mph - N/A Snow Light Snow
5:15 AM 5.0 °F -5.6 °F -0.4 °F 78% 30.07 in 1.2 mi SE 5.8 mph - N/A Snow Snow
5:31 AM 5.0 °F -6.9 °F -0.4 °F 78% 30.07 in 1.0 mi ESE 6.9 mph - 0.01 in Snow Snow
5:35 AM 5.0 °F -8.1 °F -0.4 °F 78% 30.06 in 1.0 mi ESE 8.1 mph - 0.01 in Snow Snow
5:55 AM 5.0 °F -6.9 °F 1.4 °F 85% 30.07 in 1.0 mi ESE 6.9 mph - 0.01 in Snow Snow
6:15 AM 5.0 °F -5.6 °F 1.4 °F 85% 30.07 in - East 5.8 mph - N/A   Overcast
6:35 AM 5.0 °F -6.9 °F -0.4 °F 78% 30.06 in 0.8 mi East 6.9 mph - 0.01 in Snow Snow
6:55 AM 5.0 °F -6.9 °F -0.4 °F 78% 30.06 in 1.2 mi East 6.9 mph - 0.01 in Snow Light Snow
7:15 AM 5.0 °F -6.9 °F 1.4 °F 85% 30.05 in 1.2 mi East 6.9 mph - N/A Snow Snow
7:35 AM 5.0 °F -9.1 °F 1.4 °F 85% 30.05 in 1.8 mi East 9.2 mph - N/A Snow Light Snow
7:55 AM 5.0 °F -10.0 °F 1.4 °F 85% 30.05 in 1.8 mi East 10.4 mph - N/A Snow Light Snow
8:14 AM 6.8 °F -6.9 °F 1.4 °F 79% 30.06 in 1.0 mi ENE 9.2 mph - N/A Snow Light Snow
8:35 AM 6.8 °F -4.8 °F 1.4 °F 79% 30.07 in 0.8 mi East 6.9 mph - N/A Snow Light Snow
8:54 AM 6.8 °F -3.5 °F 1.4 °F 79% 30.09 in 0.8 mi East 5.8 mph - N/A Snow Light Snow
9:14 AM 6.8 °F -4.8 °F 1.4 °F 79% 30.09 in 0.8 mi East 6.9 mph - N/A Snow Light Snow
9:35 AM 6.8 °F -5.9 °F 1.4 °F 79% 30.10 in 0.5 mi East 8.1 mph - N/A Snow Light Snow
9:55 AM 6.8 °F -4.8 °F 1.4 °F 79% 30.10 in 1.0 mi East 6.9 mph - N/A Snow Light Snow
10:14 AM 6.8 °F -4.8 °F 1.4 °F 79% 30.11 in 1.0 mi ESE 6.9 mph - N/A Snow Light Snow
10:35 AM 6.8 °F -4.8 °F 1.4 °F 79% 30.13 in 0.8 mi East 6.9 mph - N/A Snow Light Snow
10:55 AM 6.8 °F -4.8 °F 1.4 °F 79% 30.13 in 1.5 mi East 6.9 mph - N/A Snow Light Snow
11:15 AM 8.6 °F -2.6 °F 1.4 °F 73% 30.13 in 1.8 mi East 6.9 mph - N/A Snow Light Snow
11:34 AM 8.6 °F -4.7 °F 1.4 °F 73% 30.11 in 1.8 mi East 9.2 mph - N/A Snow Light Snow
11:55 AM 8.6 °F -4.7 °F 1.4 °F 73% 30.10 in 2.5 mi East 9.2 mph - N/A Snow Light Snow
12:14 PM 8.6 °F -5.5 °F 1.4 °F 73% 30.10 in 5.0 mi East 10.4 mph - N/A   Haze
12:35 PM 8.6 °F -6.3 °F 1.4 °F 73% 30.09 in 10.0 mi ENE 11.5 mph - N/A   Overcast
12:55 PM 8.6 °F -4.7 °F 1.4 °F 73% 30.08 in 10.0 mi East 9.2 mph - N/A   Overcast
1:15 PM 10.4 °F -2.4 °F 1.4 °F 67% 30.09 in 10.0 mi East 9.2 mph - N/A Snow Light Snow
1:35 PM 10.4 °F -2.4 °F 1.4 °F 67% 30.09 in 7.0 mi ENE 9.2 mph - N/A Snow Light Snow
1:55 PM 10.4 °F -1.5 °F 3.2 °F 73% 30.09 in 10.0 mi NE 8.1 mph - N/A   Overcast
2:14 PM 10.4 °F 0.8 °F 3.2 °F 73% 30.10 in 7.0 mi NE 5.8 mph - N/A Snow Light Snow
2:35 PM 10.4 °F 0.8 °F 3.2 °F 73% 30.10 in 10.0 mi NNE 5.8 mph - N/A Snow Light Snow
2:55 PM 10.4 °F -0.4 °F 3.2 °F 73% 30.11 in 7.0 mi North 6.9 mph - N/A Snow Light Snow
3:15 PM 10.4 °F -0.4 °F 3.2 °F 73% 30.12 in 10.0 mi North 6.9 mph - N/A Snow Light Snow
3:55 PM 10.4 °F 0.8 °F 3.2 °F 73% 30.13 in 10.0 mi North 5.8 mph - N/A Snow Light Snow
4:14 PM 8.6 °F -2.6 °F 1.4 °F 73% 30.13 in 10.0 mi North 6.9 mph - N/A Snow Light Snow
4:35 PM 6.8 °F -2.0 °F 1.4 °F 79% 30.14 in 10.0 mi North 4.6 mph - N/A Snow Light Snow
4:55 PM 6.8 °F - 1.4 °F 79% 30.15 in 10.0 mi Calm Calm - N/A   Overcast
5:15 PM 6.8 °F - 1.4 °F 79% 30.16 in 7.0 mi Calm Calm - N/A   Mostly Cloudy
5:35 PM 5.0 °F -2.1 °F 1.4 °F 85% 30.16 in 10.0 mi NW 3.5 mph - 0.01 in   Scattered Clouds
5:54 PM 1.4 °F -6.2 °F -2.2 °F 85% 30.17 in 10.0 mi WNW 3.5 mph - 0.01 in   Clear
5:55 PM 1.4 °F -6.2 °F -2.2 °F 85% 30.17 in 10.0 mi NW 3.5 mph - 0.01 in   Clear
6:35 PM 1.4 °F -8.3 °F -4.0 °F 78% 30.19 in 10.0 mi NW 4.6 mph - N/A   Clear
6:55 PM -0.4 °F -10.4 °F -5.8 °F 78% 30.19 in 10.0 mi NNW 4.6 mph - N/A   Clear
7:14 PM -0.4 °F -10.4 °F -5.8 °F 78% 30.19 in 10.0 mi NNW 4.6 mph - N/A   Clear
7:35 PM -0.4 °F -10.4 °F -5.8 °F 78% 30.19 in 10.0 mi NNW 4.6 mph - N/A   Clear
7:55 PM -2.2 °F -12.5 °F -7.6 °F 78% 30.20 in 10.0 mi NW 4.6 mph - N/A   Clear
8:15 PM -0.4 °F -8.3 °F -5.8 °F 78% 30.20 in 10.0 mi NW 3.5 mph - N/A   Clear
8:35 PM -2.2 °F -10.4 °F -7.6 °F 78% 30.20 in 10.0 mi WNW 3.5 mph - N/A   Clear
8:55 PM -5.8 °F -14.5 °F -11.2 °F 77% 30.21 in 10.0 mi WNW 3.5 mph - N/A   Clear
9:15 PM -5.8 °F -14.5 °F -11.2 °F 77% 30.22 in 10.0 mi WNW 3.5 mph - N/A   Clear
9:55 PM -4.0 °F - -9.4 °F 78% 30.22 in 10.0 mi Calm Calm - N/A   Clear
10:14 PM -5.8 °F - -9.4 °F 84% 30.22 in 10.0 mi Calm Calm - N/A   Clear
10:35 PM -5.8 °F - -9.4 °F 84% 30.23 in 10.0 mi Calm Calm - N/A   Clear
10:54 PM -5.8 °F - -11.2 °F 77% 30.22 in 10.0 mi Calm Calm - N/A   Clear
11:15 PM -7.6 °F - -13.0 °F 77% 30.22 in 10.0 mi Calm Calm - N/A   Clear
11:35 PM -7.6 °F - -11.2 °F 84% 30.22 in 10.0 mi Calm Calm - N/A   Clear
11:55 PM -7.6 °F - -14.8 °F 71% 30.23 in 10.0 mi Calm Calm - N/A   Clear